カタログに戻る

IRIDIUM 33 DEB

運用中PO
NORAD 34486·DEBRIS·🇺🇸 United States

打ち上げ Sep 14, 1997 から Baikonur Cosmodrome

Loading…

次のパス (今後24時間)

TLE

最新Source: Space-Track

元期: Sep 14, 2026, 10:36 UTC

1 34486U 97051GB  26257.44209372  .00026309  00000-0  15002-2 0  9990
2 34486  86.3752 242.7225 0006741 145.4212   7.1603 15.12636888931322

AllMySatでIRIDIUM 33 DEBをリアルタイム追跡

Download on the App Store